| time (UTC) | temp C | wind direction | speed KPH | gust KPH | rain 1hr cm | rain 24hr cm | rain mn cm | humidity % | barometer mb |
| 20260502214502 | 17 | 194 | 0.0 | 0.0 | 0.00 | 0.00 | 0.00 | 85 | 1008.8 |
| 20260502213001 | 17 | 186 | 0.0 | 0.0 | 0.00 | 0.00 | 0.00 | 86 | 1008.8 |
| 20260502211503 | 17 | 159 | 0.0 | 0.0 | 0.00 | 0.00 | 0.00 | 84 | 1008.3 |
| 20260502210001 | 17 | 219 | 0.0 | 0.0 | 0.00 | 0.00 | 0.00 | 81 | 1008.6 |
| 20260502204501 | 17 | 209 | 0.0 | 0.0 | 0.00 | 0.00 | 0.00 | 80 | 1008.5 |
| 20260502190001 | 20 | 212 | 0.0 | 0.0 | 0.00 | 0.00 | 0.00 | 69 | 1008.4 |
| 20260502184501 | 21 | 215 | 0.0 | 0.0 | 0.00 | 0.00 | 0.00 | 67 | 1008.2 |
| 20260502183002 | 21 | 217 | 0.0 | 0.0 | 0.00 | 0.00 | 0.00 | 64 | 1008.1 |
| 20260502181502 | 22 | 217 | 0.0 | 0.0 | 0.00 | 0.00 | 0.00 | 63 | 1008.0 |
| 20260502163000 | 23 | 244 | 3.2 | 0.0 | 0.00 | 0.00 | 0.00 | 56 | 1009.1 |
| 20260502161502 | 23 | 208 | 1.6 | 0.0 | 0.00 | 0.00 | 0.00 | 56 | 1009.3 |
| 20260502151501 | 23 | 231 | 0.0 | 0.0 | 0.00 | 0.00 | 0.00 | 56 | 1009.8 |
| 20260502123001 | 25 | 211 | 8.0 | 0.0 | 0.00 | 0.00 | 0.00 | 47 | 1010.8 |
| 20260502121502 | 23 | 182 | 3.2 | 0.0 | 0.00 | 0.00 | 0.00 | 48 | 1010.8 |
| 20260502104502 | 23 | 141 | 6.4 | 0.0 | 0.00 | 0.00 | 0.00 | 43 | 1011.7 |
| 20260502103000 | 23 | 223 | 3.2 | 0.0 | 0.00 | 0.00 | 0.00 | 41 | 1011.9 |
| 20260502101502 | 22 | 193 | 0.0 | 0.0 | 0.00 | 0.00 | 0.00 | 40 | 1011.6 |
| 20260502091500 | 22 | 218 | 1.6 | 0.0 | 0.00 | 0.00 | 0.00 | 41 | 1012.1 |
| 20260502070001 | 17 | 192 | 0.0 | 0.0 | 0.00 | 0.00 | 0.00 | 51 | 1012.6 |
| 20260502064502 | 17 | 206 | 0.0 | 0.0 | 0.00 | 0.00 | 0.00 | 54 | 1012.6 |
| 20260502063002 | 17 | 174 | 3.2 | 0.0 | 0.00 | 0.00 | 0.00 | 55 | 1012.9 |
| 20260502061502 | 16 | 198 | 1.6 | 0.0 | 0.00 | 0.00 | 0.00 | 57 | 1012.8 |
| 20260502060002 | 15 | 126 | 0.0 | 0.0 | 0.00 | 0.00 | 0.00 | 61 | 1012.8 |
| 20260502054501 | 13 | 196 | 1.6 | 0.0 | 0.00 | 0.00 | 0.00 | 61 | 1012.9 |
| 20260502053001 | 12 | 189 | 0.0 | 0.0 | 0.00 | 0.00 | 0.00 | 63 | 1012.9 |
| 20260502051500 | 12 | 205 | 0.0 | 0.0 | 0.00 | 0.00 | 0.00 | 65 | 1013.1 |
| 20260502050003 | 11 | 207 | 0.0 | 0.0 | 0.00 | 0.00 | 0.00 | 68 | 1012.9 |
| 20260502044501 | 11 | 206 | 0.0 | 0.0 | 0.00 | 0.00 | 0.00 | 68 | 1013.1 |
| 20260502043002 | 11 | 180 | 1.6 | 0.0 | 0.00 | 0.00 | 0.00 | 68 | 1012.9 |
| 20260502041500 | 11 | 204 | 0.0 | 0.0 | 0.00 | 0.00 | 0.00 | 67 | 1013.0 |
| 20260502040002 | 11 | 209 | 0.0 | 0.0 | 0.00 | 0.00 | 0.00 | 68 | 1012.9 |
| 20260502034502 | 11 | 211 | 0.0 | 0.0 | 0.00 | 0.00 | 0.00 | 68 | 1013.1 |
| 20260502033000 | 12 | 135 | 1.6 | 0.0 | 0.00 | 0.00 | 0.00 | 67 | 1013.4 |
| 20260502031502 | 11 | 199 | 0.0 | 0.0 | 0.00 | 0.00 | 0.00 | 68 | 1013.2 |
| 20260502030002 | 11 | 199 | 3.2 | 0.0 | 0.00 | 0.00 | 0.00 | 69 | 1013.4 |
| 20260502024502 | 11 | 205 | 0.0 | 0.0 | 0.00 | 0.00 | 0.00 | 69 | 1013.5 |
| 20260502023000 | 11 | 163 | 1.6 | 0.0 | 0.00 | 0.00 | 0.00 | 70 | 1013.6 |
| 20260502021501 | 11 | 206 | 0.0 | 0.0 | 0.00 | 0.00 | 0.00 | 69 | 1013.6 |
| 20260502020002 | 12 | 203 | 0.0 | 0.0 | 0.00 | 0.00 | 0.00 | 69 | 1013.4 |
| 20260502013002 | 11 | 209 | 0.0 | 0.0 | 0.00 | 0.00 | 0.00 | 71 | 1014.3 |
| 20260502011502 | 12 | 206 | 0.0 | 0.0 | 0.00 | 0.00 | 0.00 | 70 | 1014.4 |
| 20260502010001 | 11 | 206 | 0.0 | 0.0 | 0.00 | 0.00 | 0.00 | 72 | 1014.4 |
| 20260502004502 | 11 | 205 | 0.0 | 0.0 | 0.00 | 0.00 | 0.00 | 73 | 1014.6 |
| 20260502003002 | 12 | 206 | 0.0 | 0.0 | 0.00 | 0.00 | 0.00 | 72 | 1014.7 |
| 20260502001502 | 12 | 207 | 0.0 | 0.0 | 0.00 | 0.00 | 0.00 | 71 | 1014.8 |
| 20260502000001 | 11 | 207 | 0.0 | 0.0 | 0.00 | 0.00 | 0.00 | 73 | 1015.1 |
| 20260501234501 | 11 | 207 | 0.0 | 0.0 | 0.00 | 0.00 | 0.00 | 73 | 1015.0 |
| 20260501233000 | 11 | 206 | 0.0 | 0.0 | 0.00 | 0.00 | 0.00 | 74 | 1014.8 |
| 20260501231501 | 12 | 207 | 0.0 | 0.0 | 0.00 | 0.00 | 0.00 | 72 | 1015.1 |
| 20260501230001 | 12 | 207 | 0.0 | 0.0 | 0.00 | 0.00 | 0.00 | 70 | 1015.4 |
| 20260501224500 | 12 | 210 | 0.0 | 0.0 | 0.00 | 0.00 | 0.00 | 70 | 1015.3 |
| 20260501223001 | 12 | 209 | 0.0 | 0.0 | 0.00 | 0.00 | 0.00 | 69 | 1015.4 |
| 20260501221502 | 12 | 207 | 0.0 | 0.0 | 0.00 | 0.00 | 0.00 | 69 | 1015.4 |
| 20260501220003 | 12 | 207 | 0.0 | 0.0 | 0.00 | 0.00 | 0.00 | 68 | 1015.6 |